Regional Weather Roundup
Issued by NWS

Home | Current Version | Previous Version | Graphics & Text | Print | Product List | Glossary On
Versions: 1 2 3 4 5 6 7 8 9 10 11 12 13 14 15 16 17 18 19 20 21 22 23 24 25 26 27 28 29 30 31 32 33 34 35 36 37 38 39 40 41 42 43 44 45 46 47 48 49 50
000
ASUS43 KMPX 231910
RWRMN
WEATHER ROUNDUP FOR MINNESOTA
NATIONAL WEATHER SERVICE TWIN CITIES/CHANHASSEN MN
200 PM CDT SAT SEP 23 2017


NOTE: "FAIR" INDICATES FEW OR NO CLOUDS BELOW 12,000 FEET WITH NO
SIGNIFICANT WEATHER AND/OR OBSTRUCTIONS TO VISIBILITY. N/A MEANS
CURRENT SKY AND/OR WEATHER CONDITIONS ARE NOT AVAILABLE.

MNZ060>063-068>070-232000-
   Twin Cities Metro

CITY           SKY/WX    TMP DP  RH WIND       PRES   REMARKS
TWIN CITIES    PTSUNNY   86  71  60 S9        29.95F HX  91
ST PAUL        PTSUNNY   85  72  65 SE8       29.95F HX  91
CRYSTAL        MOSUNNY   85  68  56 S12       29.93F
BLAINE         PTSUNNY   88  70  55 S10       29.95S HX  92
LAKEVILLE      MOSUNNY   86  70  58 S8        29.95F HX  90
EDEN PRAIRIE   MOSUNNY   85  71  63 S9        29.94F HX  90
SOUTH ST PAUL  MOSUNNY   86  69  56 S5G17     29.95S
LAKE ELMO      FAIR      86  72  62 S12       29.97S HX  92
$$
MNZ001>005-007-008-013>017-022>024-027-028-232000-
   Northwest Minnesota

CITY           SKY/WX    TMP DP  RH WIND       PRES   REMARKS
BEMIDJI        CLOUDY    54  52  93 W7        30.05R
HALLOCK          N/A     61  50  67 N14G22    30.04S
ROSEAU         CLOUDY    55  52  88 NW9       30.04R
WARROAD        CLOUDY    55  52  88 NW9       30.04R
THIEF RVR FALL CLOUDY    55  50  83 N6        30.06S
CROOKSTON      CLOUDY    55  50  82 N9        30.05S
FOSSTON        CLOUDY    54  50  87 N8        30.04F
DETROIT LAKES  CLOUDY    52  52 100 N5        30.03F
MOORHEAD       CLOUDY    57  48  72 N13       30.04R
PARK RAPIDS    LGT RAIN  57  54  89 N6        30.01F
MAHNOMEN       CLOUDY    54  50  88 N7        30.02F
$$
MNZ006-009>011-018-025>026-232000-
   North Central Minnesota

CITY           SKY/WX    TMP DP  RH WIND       PRES   REMARKS
BAUDETTE       CLOUDY    55  53  93 W9        30.04R
FLAG ISLAND    CLOUDY    54  52  94 NW10      30.01R
INTL FALLS     CLOUDY    58  54  86 VRB5      30.00R
WASKISH        CLOUDY    57  54  88 W7        30.03R
BIG FORK       LGT RAIN  59  55  88 CALM      30.02R
LONGVILLE      CLOUDY    61  55  82 W6        30.02S
GRAND RAPIDS   CLOUDY    63  59  87 NW9       30.03R
CRANE LAKE     CLOUDY    61  57  88 CALM      30.02R
ORR            CLOUDY    61  55  82 W5        29.99S
COOK           CLOUDY    64  59  82 W10       30.01R
WALKER         LGT RAIN  55  54  94 NW6       30.04R
$$
MNZ012-019>021-037-232000-
   Northeast Minnesota

CITY           SKY/WX    TMP DP  RH WIND       PRES   REMARKS
DULUTH         MOSUNNY   82  71  69 SW10      29.95F
ELY            CLOUDY    66  63  88 W8        29.99S
HIBBING        CLOUDY    68  63  84 NW9       29.99R
EVELETH        MOSUNNY   73  64  74 NW8       29.98S
DULUTH HARBOR  PTSUNNY   79  73  83 CALM      29.92S
GRAND MARAIS     N/A     67  64  90 SW7       29.92R
$$
MNZ029>031-032-039>041-046>048-054>057-064-232000-
   West Central Minnesota

CITY           SKY/WX    TMP DP  RH WIND       PRES   REMARKS
FERGUS FALLS   LGT RAIN  54  54 100 N9        29.99F
WHEATON        LGT RAIN  54  50  87 NW7       30.05R
ALEXANDRIA     LGT RAIN  60  58  92 CALM      30.03S
ELBOW LAKE     CLOUDY    54  54 100 CALM      30.00F
WADENA         LGT RAIN  55  55 100 CALM      30.03S
GLENWOOD       CLOUDY    61  57  88 NW12      30.02F
APPLETON       LGT RAIN  57  55  94 N7        29.99F
BENSON         CLOUDY    59  55  88 NE9       30.00F
ORTONVILLE     LGT RAIN  55  52  88 NE12      29.95F
MADISON        TSTM      61  61 100 E8        29.97F
WILLMAR        CLOUDY    68  61  77 NW13      30.00R
$$
MNZ033>034-036-042>043-049>051-058-059-232000-
   Central Minnesota

CITY           SKY/WX    TMP DP  RH WIND       PRES   REMARKS
ST CLOUD       CLOUDY    79  70  74 SW7       29.95S
SAUK CENTRE    MOCLDY    65  60  83 NW12      30.00R
PAYNESVILLE    CLOUDY    74  66  75 W6        29.98S
AITKIN         CLOUDY    70  63  78 W5        29.99R
PINE RIVER     CLOUDY    61  55  82 NW6       30.05R
BRAINERD       CLOUDY    68  61  78 W8        30.01R
STAPLES        CLOUDY    61  55  82 NW10      30.03R
LITTLE FALLS   CLOUDY    68  57  68 NW5       30.00R
LITCHFIELD     CLOUDY    79  70  73 CALM      29.96F
BUFFALO        CLOUDY    82  68  60 S6        29.96S
MAPLE LAKE     CLOUDY    82  71  70 SW3       29.97S
HUTCHINSON     PTSUNNY   82  71  69 S5        29.97S
$$
MNZ037-044-045-052-053-232000-
   East Central Minnesota

CITY           SKY/WX    TMP DP  RH WIND       PRES   REMARKS
PRINCETON      PTSUNNY   84  70  61 S7        29.96R
MORA           CLOUDY    79  68  69 W5        29.97S
RUSH CITY      PTSUNNY   84  70  62 S8        29.95F
MOOSE LAKE     CLOUDY    81  70  69 SW3       29.94S
HINCKLEY       CLOUDY    82  72  69 SW6       29.95F
CLOQUET        PTSUNNY   82  66  57 S7        29.96S
MCGREGOR       PTSUNNY   75  68  78 NW8       29.99R
$$
MNZ071>073-080-081-089-090-097-098-232000-
   Southwest Minnesota

CITY           SKY/WX    TMP DP  RH WIND       PRES   REMARKS
MONTEVIDEO     CLOUDY    61  57  88 NE9       29.99F
GRANITE FALLS  CLOUDY    64  58  82 NW9       30.01F
CANBY          TSTM      58  56  93 E6        29.99F
MARSHALL       CLOUDY    61  56  83 N14       30.00R
REDWOOD FALLS  CLOUDY    75  64  68 NW7       29.95F
OLIVIA         CLOUDY    73  64  73 NW7       29.97S
PIPESTONE      CLOUDY    73  66  78 S3        29.97R
WORTHINGTON    PTSUNNY   83  69  62 S10       29.95F
JACKSON        PTSUNNY   82  68  61 CALM      29.96F
TRACY          CLOUDY    69  62  77 N13       29.98S
SLAYTON        CLOUDY    77  60  55 SE6       29.98F
$$
MNZ065>067-074>077-082>085-091>093-232000-
   South Central Minnesota

CITY           SKY/WX    TMP DP  RH WIND       PRES   REMARKS
MANKATO        SUNNY     86  71  60 S8        29.95F HX  91
NEW ULM        MOSUNNY   82  68  61 S5        29.94F
ST JAMES       SUNNY     88  68  51 SE12G18   29.94F HX  91
FAIRMONT       MOSUNNY   87  69  54 S16G28    29.95F HX  91
FARIBAULT      MOSUNNY   84  70  61 S8        29.97F
OWATONNA       MOSUNNY   86  72  62 S13       29.97F HX  92
WASECA         MOSUNNY   84  66  54 S8        29.97F
ALBERT LEA     MOSUNNY   90  70  51 S7        29.98F HX  95
$$
MNZ078>079-086>088-094>096-232000-
   Southeast Minnesota

CITY           SKY/WX    TMP DP  RH WIND       PRES   REMARKS
ROCHESTER      MOSUNNY   84  68  58 S10       30.00F
RED WING       PTSUNNY   90  66  45 S7        29.95F HX  92
STANTON        MOSUNNY   87  70  57 S10       29.95F HX  92
DODGE CENTER   MOSUNNY   88  66  48 S12       29.99F HX  90
WINONA         MOSUNNY   90  64  43 SW6       29.99F HX  91
AUSTIN         MOSUNNY   84  66  54 S10       29.98F
PRESTON        MOSUNNY   86  64  48 S14       30.01F
$$
ABBREVIATIONS USED IN REMARKS
   TC - TEMPERATURES IN CELSIUS
  WCI - WIND CHILL INDEX
   HX - HEAT INDEX
  VSB - VISIBILITY
$$




USA.gov is the U.S. government's official web portal to all federal, state and local government web resources and services.